DELTA 1 DEB, 42650

Orbit data source: Space-Track

DELTA 1 DEB, 42650 is space debris in SSO originally from a launch on Thu, 12 Jun 1975 UTC launched from the Air Force Western Test Range (AFWTR). Debris objects in space refer to the collection of defunct objects orbiting the Earth. Examples of debris include non-operational satellites, rocket bodies, and fragments generated from explosions, collisions, or faulty payload assembly.

Loading next visibility...
Identifier
42650, 1975-052MK
Orbit
SSO
Country
Flag of USUS
Related business
Manufacturer
Unknown
Mission
Spacecraft
Bus & Motor
Unknown
Mass
Unknown
Launch date (UTC)
1975-06-12 (50 years ago)
Launch vehicle
Unknown
Launch site
Air Force Western Test Range (AFWTR)
Object type
Payload
Rocket body
Debris
Shape & HBR
Unknown shape, 1.1 m
Radar Cross Section
Small (<0.1 m²)

Expand to show TLE details & history
Last TLE update: 2 months ago

TLE from 2 months ago
0 DELTA 1 DEB
1 42650U 75052MK  25226.17953796  .00000086  00000-0  18768-3 0  9997
2 42650  99.7637 349.6361 0232902  53.3275  64.6860 13.44056397 33586
Epoch: 2025-08-14T04:18Z
TLE epoch observation values (Epoch: 2025-08-14T04:18:32.079Z)
Latitude
58.25802°
Longitude
158.21991°
Altitude
1,032.878 km
Speed
7.376 km/s
True Right ascension
12h 22m 48s
True Declination
58° 06' 35"
Sunlit
Object was in daylight at epoch
Visualization orbit readout
Latitude
Unknown
Longitude
Unknown
Altitude
Unknown
Speed
Unknown
Apparent Right ascension
Unknown
Apparent Declination
Unknown
Sunlit
N/A
Visualization observer readout
Local Sidereal Time
00:55:07
Azimuth
Unknown
Elevation
Unknown
Doppler factor
Unknown
Orbital elements
Apogee altitude
1,265.487 km
Perigee altitude
917.547 km
Semi-major axis
7,469.654 km
Eccentricity
0.02329
Inclination
99.7637°
RAAN
349.6361°
Arg. of periapsis
53.3275°
True anomaly
67.12825°
Mean anomaly
64.686°
Eccentric anomaly
65.90415°
Mean motion
3.36196 °/min
Orbital period
107.08 mins
BSTAR
0.00018768
Loading maneuver chart data...
Computing Atmospheric mass density...

Documentation

Showing up to 5 results
|